Погода в Боготоле

Погода в Боготоле : погода сейчас, прогноз погоды и архив. Всё, что Вы хотите узнать о погоде в Боготоле!

Хотите узнать прогноз погоды в Боготоле? Тогда Вам сюда: Погода в Боготоле

Поиск расширенной информации на нашем сайте:

Полезная информация: Что такое внутренний подтягивающий резистор.

Другие новости

Новости СМИ2

Главная страница сайта

Новости сайта

03.07.2017

Напоминаем, что на нашем специализированном сайте Метеоцентр.Азия вы можете получить высокодетализированные автоматические прогнозы погоды по пунктам России, СНГ и мира в авиационном формате (включающие направление и скорость ветра, видимость, явления погоды, количество и форму облачности, нижнюю и верхнюю границу облачности).

Рекомендуем: автополив газона

Погода в Боготоле - сегодня

Время (UTC), дата Ветер
(°,м/с) 
Видим.   Явления Облачность Т
(°С)
Тd
(°С)
f(%) Тe
(°С)
Pmin
(гПа)
dP
(гПа)
Po
(мм)
O2
(г/м3)
Тmin Tmax R s Состояние
почвы
00 23.07.17 070 (В) 0500 м  туман  6/0 верхняя 
[Ci fib]
+13.3 +13 98 +20  1012.5  -0.7  734  279  +11.4        мокрая 
03 23.07.17 060 (СВ) 10 км  дымка{туман}  1/1 1000 м 
[Cu hum]
+18.8 +16.3 85 +32  1011.4  -0.3  733  273           
06 23.07.17 070 (В) 10 км  дым{туман}  8/8 1000 м 
[Cu med, cong]
+22.4 +17 72 +35  1010.5  -0.5  733  269           
09 23.07.17 080 (В) 20000 м    8/5 1000 м верхняя 
[Cu med, cong|Ci fib]
+23.9 +16.6 64 +36  1009.5  -0.8  732  268           
12 23.07.17 тихо ()   10 км  гроза без осадков  9/8 660 м кучево-дожд., средняя 
[Cb cap|Ac As]
+18.9 +15.9 83 +30  1010.3  0.2  733  273    +24.3       
15 23.07.17 тихо ()   10 км  дымка{гроза}  8/3 600 м кучево-дожд., средняя 
[Cb cap|Ac trans]
+16.6 +15.4 93 +27  1011.1  0.5  733  275           
18 23.07.17 180 (Ю) 10 км  дымка{гроза}  8/3 600 м кучево-дожд., средняя 
[Cb cap|Ac As]
+13.6 +13.4 99 +22  1010.8  -0.6  732  278           
21 23.07.17 300 (СЗ) 10 км  дымка  10/3 600 м кучево-дожд., средняя 
[Cb cap|As op]
+13.8 +13.6 99 +22  1010.5  -0.3  732  278           
00 24.07.17 тихо ()   10 км  дымка  8/4 600 м кучево-дожд., средняя 
[Cb cap|Ac As]
+14 +13.8 99 +21  1010.7  -0.3  732  278  +12.1        влажная 
03 24.07.17 тихо ()   20000 м    9/8 600 м кучево-дожд., средняя 
[Cb cap|Ac trans]
+18.4 +16.6 89 +31  1010.3  0.1  732  273           
06 24.07.17 180 (Ю) 10 км  слаб. ливневой дождь{гроза}  10/6 600 м кучево-дожд., средняя 
[Cb cap|As op]
+17.1 +16.5 96 +31  1010.5  0.1  733  274           
09 24.07.17 130 (ЮВ) 20000 м  {ливн. осадки}  9/6 1000 м средняя, верхняя 
[Cu med, cong|Ac trans|Ci fib]
+22.7 +16.6 68 +35  1008.6  -1.3  732  269           
12 24.07.17 120 (ЮВ) 20000 м  {ливн. осадки}  9/4 600 м кучево-дожд., средняя, верхняя 
[Cb cap|Ac cuf|Ci fib]
+20.9 +18 83 +36  1008.9  0.1  732  270    +23.2     
15 24.07.17 020 (С) 10 км  дымка  9/3 600 м кучево-дожд., верхняя 
[Cb cap|Ci fib]
+17.1 +16.1 94 +30  1009.3  732  274           
18 24.07.17 170 (Ю) 10 км  дымка  6/3 1000 м верхняя 
[Sc|Ci fib]
+15.2 +14.9 98 +26  1008.6  -0.9  731  276           
21 24.07.17 070 (В) 10 км  дымка  8/0 верхняя 
[Ci fib]
+13.7 +13.6 99 +22  1008.1  -0.7  731  277           
00 25.07.17 080 (В) 10 км  дымка  9/3 2000 м средняя, верхняя 
[Ac lent|Ci ing]
+14.6 +14.4 99 +24  1007.3  -0.6  730  276  +13.2        влажная 
03 25.07.17 150 (ЮВ) 20000 м    8/3 2000 м средняя, верхняя 
[Ac trans|Ci fib]
+20.7 +18 85 +36  1005.9  -0.7  729  269           
06 25.07.17 120 (ЮВ) 20000 м    8/4 1000 м верхняя 
[Cu hum|Ci fib]
+23.7 +18.5 73 +40  1004.2  -1.3  728  266           
09 25.07.17 130 (ЮВ) 20000 м    8/4 600 м кучево-дожд., верхняя 
[Cb cap|Ci fib]
+24.6 +16.5 61 +37  1002.6  -1.4  727  265           
12 25.07.17 120 (ЮВ) 20000 м    6/4 2000 м средняя, верхняя 
[Ac trans|Ci fib]
+24.3 +17.2 65 +38  1001.6  -1  727  265    +25.6       
15 25.07.17 110 (В) 20000 м    8/3 600 м кучево-дожд., средняя, верхняя 
[Cb cap|Ac trans|Ci fib]
+19.5 +16.1 81 +32  1001.1  -1.1  726  269           
18 25.07.17 210 (ЮЗ) 10 км  дымка{гроза, ливн. осадки}  9/6 600 м кучево-дожд., средняя 
[Cb cap|Ac trans]
+18.1 +17.6 97 +35  1001.3  0.1  726  270           
21 25.07.17 220 (ЮЗ) 10 км  дымка  8/8 2000 м средняя 
[Ac trans]
+16.6 +15.7 94 +29  1002  0.5  726  272           
00 26.07.17 220 (ЮЗ) 10 км  дымка  8/4 600 м кучево-дожд., средняя 
[Cb cap|Ac trans]
+17.1 +15.5 90 +28  1002.4  0.5  727  272  +15.7      мокрая 
Время (UTC), дата Ветер
(°,м/с) 
Видим.   Явления Облачность Т
(°С)
Тd
(°С)
f(%) Тe
(°С)
Pmin
(гПа)
dP
(гПа)
Po
(мм)
O2
(г/м3)
Тmin Tmax R s Состояние
почвы

Для получения пояснительной информации подведите курсор к названию столбца.

ПОГОДА в Боготоле - архив

Всё, что Вы хотите узнать о погоде в Боготоле - удобно и подробно!

Выберите нужную дату (начиная с 1 января 2015* года) и нажмите кнопку "Найти".
Будут отображены архивные сводки погоды по пункту Боготол, начиная с указанной даты.


Отображать данные в формате CSV (для использования в таблицах Excel)


Внимание! Наш архив погоды предназначен исключительно для личного некоммерческого использования в познавательных целях. Если Вам необходимы официальные справки о состоянии погоды (для производственных, юридических, коммерческих и т.п. целей), обращайтесь в органы Росгидромета.

*Примечание: данная дата относится к архиву по метеостанциям СССР (Россия, СНГ, Балтия).
Архив по метеостанциям Зарубежной Европы и Азии (кроме Китая) хранится 10 дней, по другим регионам земного шара (Китай, Африка, Америка, Австралия, Океания) - 1 день.

Боготол - район местоположения метеостанции


Название, широта, долгота, высота метеостанции:
Боготол 56.2°ш. 89.6°д. 291 м над ур. моря [Российская Федерация]

Дополнительная информация

В oтличие oт бoльшинства пoгoдных сайтoв мы публикуем пoдрoбную метеoинфoрмацию в детальнoм прoфессиoнальнoм фoрмате.

Характеристики температуры и влажнoсти вoздуха измеряются на высoте 2 м в тени вдали oт зданий и деревьев.
Скoрoсть ветра измеряется на высoте 10 м (на урoвне рoста челoвека скoрoсть ветра ниже в 1.5-2 раза). Если метеoстанция нахoдится в гoрoде или в лесу, тo скoрoсть ветра занижена на 2-4 м/с пo сравнению с oткрытым местoм. Скoрoсть ветра над акватoриями крупных рек и oзёр, а также на вершинах хoлмoв на 2-5 м/с выше, чем в oбычных услoвиях.
Атмoсфернoе давление в разных тoчках местнoсти мoжет значительнo oтличаться oт давления на метеoстанции, в зависимoсти oт услoвий рельефа (при пoдъёме на 10 м давление пoнижается примернo на 1 мм рт.ст.).